TimeCDT,TemperatureF,Dew PointF,Humidity,Sea Level PressureIn,VisibilityMPH,Wind Direction,Wind SpeedMPH,Gust SpeedMPH,PrecipitationIn,Events,Conditions,WindDirDegrees,DateUTC
12:15 AM,40.6,29.5,64,29.80,10.0,NNW,11.5,17.3,N/A,,Clear,330,2012-11-01 05:15:00
12:35 AM,40.1,29.3,65,29.80,10.0,NW,11.5,-,N/A,,Clear,320,2012-11-01 05:35:00
12:55 AM,39.7,29.1,66,29.80,10.0,NW,10.4,16.1,N/A,,Clear,320,2012-11-01 05:55:00
1:15 AM,39.0,28.4,66,29.80,10.0,NW,10.4,-,N/A,,Clear,320,2012-11-01 06:15:00
1:35 AM,39.2,27.5,63,29.80,10.0,NW,8.1,-,N/A,,Clear,320,2012-11-01 06:35:00
1:55 AM,39.2,26.2,60,29.80,10.0,NW,9.2,-,N/A,,Clear,320,2012-11-01 06:55:00
2:15 AM,39.9,27.1,60,29.81,10.0,NW,10.4,-,N/A,,Clear,310,2012-11-01 07:15:00
2:35 AM,39.6,26.6,60,29.81,10.0,NW,11.5,16.1,N/A,,Clear,320,2012-11-01 07:35:00
2:55 AM,39.2,26.1,59,29.81,10.0,NW,6.9,-,N/A,,Clear,310,2012-11-01 07:55:00
3:15 AM,38.8,26.4,61,29.81,10.0,NW,5.8,-,N/A,,Clear,310,2012-11-01 08:15:00
3:35 AM,38.1,26.6,63,29.81,10.0,WNW,5.8,-,N/A,,Clear,300,2012-11-01 08:35:00
3:55 AM,37.9,26.6,64,29.81,10.0,WNW,4.6,-,N/A,,Scattered Clouds,300,2012-11-01 08:55:00
4:15 AM,37.6,26.6,65,29.80,10.0,WNW,3.5,-,N/A,,Scattered Clouds,300,2012-11-01 09:15:00
4:35 AM,37.4,26.8,66,29.81,10.0,WNW,4.6,-,N/A,,Scattered Clouds,300,2012-11-01 09:35:00
5:15 AM,36.9,27.5,69,29.81,10.0,WNW,3.5,-,N/A,,Clear,300,2012-11-01 10:15:00
5:35 AM,36.9,27.7,69,29.81,10.0,WNW,4.6,-,N/A,,Scattered Clouds,300,2012-11-01 10:35:00
6:15 AM,37.0,28.9,73,29.82,10.0,WNW,4.6,-,N/A,,Mostly Cloudy,290,2012-11-01 11:15:00
6:35 AM,37.6,30.2,75,29.82,10.0,WNW,5.8,-,N/A,,Mostly Cloudy,300,2012-11-01 11:35:00
6:55 AM,37.8,30.0,74,29.82,10.0,WNW,5.8,-,N/A,,Mostly Cloudy,300,2012-11-01 11:55:00
7:15 AM,37.4,29.1,72,29.82,10.0,WNW,5.8,-,N/A,,Scattered Clouds,300,2012-11-01 12:15:00
7:35 AM,37.0,28.4,71,29.82,10.0,NW,5.8,-,N/A,,Clear,310,2012-11-01 12:35:00
7:55 AM,37.0,28.0,70,29.83,10.0,NW,5.8,-,N/A,,Clear,310,2012-11-01 12:55:00
8:35 AM,40.3,28.4,63,29.84,10.0,WNW,8.1,-,N/A,,Overcast,300,2012-11-01 13:35:00
8:55 AM,41.7,28.2,59,29.85,10.0,NW,12.7,18.4,N/A,,Overcast,310,2012-11-01 13:55:00
9:15 AM,41.9,28.0,58,29.85,10.0,NW,12.7,18.4,N/A,,Overcast,310,2012-11-01 14:15:00
9:35 AM,41.4,28.0,59,29.85,10.0,NW,10.4,16.1,N/A,,Mostly Cloudy,310,2012-11-01 14:35:00
9:55 AM,43.0,28.0,56,29.86,10.0,NW,11.5,19.6,N/A,,Scattered Clouds,310,2012-11-01 14:55:00
10:15 AM,45.0,27.3,50,29.86,10.0,NW,16.1,19.6,N/A,,Mostly Cloudy,320,2012-11-01 15:15:00
10:35 AM,44.6,27.7,52,29.86,10.0,NW,12.7,19.6,N/A,,Scattered Clouds,310,2012-11-01 15:35:00
10:55 AM,44.6,26.8,50,29.86,10.0,NW,15.0,28.8,N/A,,Scattered Clouds,310,2012-11-01 15:55:00
11:15 AM,45.9,27.9,49,29.87,10.0,NW,12.7,19.6,N/A,,Mostly Cloudy,310,2012-11-01 16:15:00
11:35 AM,46.0,26.4,46,29.87,10.0,NW,8.1,17.3,N/A,,Overcast,310,2012-11-01 16:35:00
11:55 AM,45.5,25.5,46,29.86,10.0,NW,10.4,17.3,N/A,,Overcast,320,2012-11-01 16:55:00
12:15 PM,45.3,24.1,43,29.86,10.0,NW,13.8,19.6,N/A,,Mostly Cloudy,310,2012-11-01 17:15:00
12:35 PM,46.9,20.8,36,29.85,10.0,WNW,8.1,17.3,N/A,,Clear,300,2012-11-01 17:35:00
12:55 PM,47.5,19.6,33,29.84,10.0,West,9.2,-,N/A,,Clear,280,2012-11-01 17:55:00
1:15 PM,48.2,18.3,31,29.83,10.0,WNW,10.4,18.4,N/A,,Mostly Cloudy,300,2012-11-01 18:15:00
1:35 PM,48.7,19.0,31,29.82,10.0,WNW,8.1,16.1,N/A,,Scattered Clouds,300,2012-11-01 18:35:00
1:55 PM,47.8,16.9,29,29.82,10.0,NW,6.9,-,N/A,,Scattered Clouds,310,2012-11-01 18:55:00
2:15 PM,47.3,12.9,25,29.82,10.0,WNW,9.2,17.3,N/A,,Mostly Cloudy,290,2012-11-01 19:15:00
2:35 PM,47.3,18.3,32,29.82,10.0,NW,11.5,18.4,N/A,,Mostly Cloudy,310,2012-11-01 19:35:00
2:55 PM,48.2,23.4,38,29.82,10.0,NW,10.4,18.4,N/A,,Scattered Clouds,310,2012-11-01 19:55:00
3:15 PM,47.5,24.3,40,29.82,10.0,NW,9.2,-,N/A,,Mostly Cloudy,320,2012-11-01 20:15:00
3:35 PM,46.9,24.8,42,29.82,10.0,NNW,8.1,-,N/A,,Overcast,330,2012-11-01 20:35:00
3:55 PM,46.9,25.0,42,29.82,10.0,NNW,8.1,-,N/A,,Overcast,330,2012-11-01 20:55:00
4:15 PM,46.4,24.6,42,29.82,10.0,NNW,5.8,-,N/A,,Overcast,330,2012-11-01 21:15:00
4:35 PM,46.4,25.2,43,29.82,10.0,NW,3.5,-,N/A,,Overcast,310,2012-11-01 21:35:00
4:55 PM,46.4,25.0,43,29.82,10.0,NW,5.8,-,N/A,,Overcast,320,2012-11-01 21:55:00
5:15 PM,45.0,26.1,48,29.82,10.0,NW,3.5,-,N/A,,Mostly Cloudy,320,2012-11-01 22:15:00
5:35 PM,42.3,27.1,55,29.83,10.0,NNW,3.5,-,N/A,,Scattered Clouds,330,2012-11-01 22:35:00
5:55 PM,43.0,27.1,54,29.83,10.0,Calm,Calm,-,N/A,,Mostly Cloudy,0,2012-11-01 22:55:00
6:15 PM,43.5,28.2,55,29.84,10.0,Calm,Calm,-,N/A,,Overcast,0,2012-11-01 23:15:00
6:35 PM,41.7,29.1,61,29.84,10.0,Calm,Calm,-,N/A,,Overcast,0,2012-11-01 23:35:00
6:55 PM,37.4,28.8,71,29.85,10.0,Calm,Calm,-,N/A,,Scattered Clouds,0,2012-11-01 23:55:00
7:15 PM,35.4,27.5,73,29.85,10.0,Calm,Calm,-,N/A,,Clear,0,2012-11-02 00:15:00
7:35 PM,33.8,28.6,81,29.85,10.0,Calm,Calm,-,N/A,,Scattered Clouds,0,2012-11-02 00:35:00
7:55 PM,34.0,27.9,78,29.85,7.0,Calm,Calm,-,N/A,,Scattered Clouds,0,2012-11-02 00:55:00
8:15 PM,34.3,28.8,80,29.86,7.0,Calm,Calm,-,N/A,,Mostly Cloudy,0,2012-11-02 01:15:00
8:35 PM,34.2,29.3,82,29.86,10.0,Calm,Calm,-,N/A,,Overcast,0,2012-11-02 01:35:00
8:55 PM,34.2,31.1,89,29.86,5.0,Calm,Calm,-,N/A,,Overcast,0,2012-11-02 01:55:00
9:15 PM,35.8,32.2,87,29.87,5.0,Calm,Calm,-,N/A,,Overcast,0,2012-11-02 02:15:00
9:35 PM,36.3,32.4,86,29.87,10.0,Calm,Calm,-,N/A,,Overcast,0,2012-11-02 02:35:00
9:55 PM,35.6,31.8,86,29.87,7.0,NNW,3.5,-,N/A,,Overcast,340,2012-11-02 02:55:00
10:15 PM,36.9,32.4,84,29.87,10.0,North,4.6,-,N/A,,Overcast,350,2012-11-02 03:15:00
10:35 PM,38.8,34.0,83,29.87,10.0,Calm,Calm,-,N/A,,Overcast,0,2012-11-02 03:35:00
10:55 PM,38.7,33.3,81,29.86,10.0,Calm,Calm,-,N/A,,Overcast,0,2012-11-02 03:55:00
11:15 PM,38.3,33.3,82,29.86,10.0,Calm,Calm,-,N/A,,Overcast,0,2012-11-02 04:15:00
11:35 PM,38.5,34.3,85,29.87,10.0,Calm,Calm,-,N/A,,Overcast,0,2012-11-02 04:35:00
11:55 PM,41.5,32.9,71,29.87,10.0,NNW,4.6,-,N/A,,Overcast,330,2012-11-02 04:55:00